Overview Statistics Trail Chart Weather Telemetry Raw packets
 

This is the latest recevied weather packets stored in our database for station/object W6TKD-13. If no packets are shown the sender has not sent any weather packets the latest 10 day(s).

<< 1 2 3 4 5 6 7 >>
Time Temp. Humidity Pressure Rain* Wind** Luminosity Snow
1788151378 20.56° C 24% 1012.8 hPa 0 mm - - -
1788150710 21.11° C 24% 1012.8 hPa 0 mm - - -
1788150043 21.67° C 23% 1012.8 hPa 0 mm - - -
1788149375 22.22° C 23% 1012.6 hPa 0 mm - - -
1788148708 22.78° C 22% 1012.6 hPa 0 mm - - -
1788148041 23.33° C 22% 1012.4 hPa 0 mm - - -
1788147375 23.89° C 21% 1012.3 hPa 0 mm - - -
1788146707 24.44° C 21% 1012.3 hPa 0 mm - - -
1788146040 25° C 21% 1012.2 hPa 0 mm - - -
1788145373 25.56° C 20% 1012.1 hPa 0 mm - - -
1788144706 26.11° C 20% 1012.1 hPa 0 mm - - -
1788144039 26.67° C 19% 1012 hPa 0 mm - - -
1788143372 27.22° C 19% 1011.8 hPa 0 mm - - -
1788142705 27.78° C 19% 1011.8 hPa 0 mm - - -
1788142038 28.33° C 18% 1011.8 hPa 0 mm - - -
1788141371 28.89° C 18% 1011.8 hPa 0 mm - - -
1788140704 29.44° C 17% 1011.9 hPa 0 mm - - -
1788140037 30° C 17% 1011.8 hPa 0 mm - - -
1788139371 30.56° C 17% 1011.8 hPa 0 mm - - -
1788138703 31.11° C 16% 1011.9 hPa 0 mm - - -
1788138036 31.67° C 16% 1011.9 hPa 0 mm - - -
1788137369 32.22° C 16% 1011.8 hPa 0 mm - - -
1788136702 32.78° C 15% 1011.8 hPa 0 mm - - -
1788136035 33.89° C 15% 1012 hPa 0 mm - - -
1788135368 35° C 14% 1012 hPa 0 mm - - -

* Rain since midnight (hover to see other rain measurements)
** Current wind speed in m/s (hover to see current wind gust speed)